Tracking 20710 objects as of 30-May-2020
HD Live streaming from Space Station
objects crossing your sky now

FLOCK 3P 34

Track FLOCK 3P 34 now!
10-day predictions
FLOCK 3P 34 is classified as:


NORAD ID: 41988
Int'l Code: 2017-008AS
Perigee: 488.9 km
Apogee: 499.3 km
Inclination: 97.4 °
Period: 94.3 minutes
Semi major axis: 6865 km
RCS: Unknown
Launch date: February 15, 2017
Source: United States (US)
Launch site: SRIHARIKOTA (SRI)
aabbcc
Your satellite tracking list
Your tracking list is empty




NASA's NSSDC Master Catalog

Two Line Element Set (TLE):
1 41988U 17008AS  20150.75360626  .00001019  00000-0  42064-4 0  9990
2 41988  97.3666 218.7132 0007542  14.9957 345.1504 15.26271366182053
Source of the keplerian elements: AFSPC